Wolf Point, MT

9:22 AM MDT on May 26, 2017 (GMT -0600)
Clayton

Weather History for KOLF - September, 2012

Change the Weather History Date:

Saturday, September 1, 2012

  Actual Average Record
Temperature  
Mean Temperature 74 °F -  
Max Temperature 88 °F 81 °F 100 °F (2004)
Min Temperature 59 °F 47 °F 37 °F (2006)
Degree Days  
Heating Degree Days 0    
Cooling Degree Days 9    
Growing Degree Days 25 (Base 50)    
Moisture  
Dew Point 49 °F    
Average Humidity 43    
Maximum Humidity 65    
Minimum Humidity 25    
Precipitation  
Precipitation 0.01 in 0.04 in 0.32 in (2008)
Month to date precipitation 0.01 0.04  
Year to date precipitation 9.13 9.71  
Sea Level Pressure  
Sea Level Pressure 29.73 in    
Wind  
Wind Speed 9 mph (NE)    
Max Wind Speed 17 mph    
Max Gust Speed 25 mph    
Visibility 10 miles    
Events Rain    
T = Trace of Precipitation, MM = Missing Value Source: NWS Daily Summary

Daily Weather History Graph

Daily Weather History Graph

Search for Another Location

Airport or City:

Trip Planner

Search our weather history database for the weather conditions in past years. The results will help you decide how hot, cold, wet, or windy it might be!

Date:

Astronomy

Sep. 01, 2012 Rise Set
Actual Time 6:20 AM MDT 7:42 PM MDT
Civil Twilight 5:48 AM MDT 8:14 PM MDT
Nautical Twilight 5:09 AM MDT 8:53 PM MDT
Astronomical Twilight 4:27 AM MDT 9:35 PM MDT
Moon 7:47 PM MDT (9/1) 7:41 AM MDT (9/1)
Length of Visible Light 14h 25m
Length of Day
13h 21m
Full, 98% of the Moon is Illuminated
Sep 1
Full
Sep 8
Last Quarter
Sep 15
New
Sep 22
First Quarter
Sep 29
Full

Hourly Weather History & Observations

Time (MDT) Temp. Heat Index Dew Point Humidity Pressure Visibility Wind Dir Wind Speed Gust Speed Precip Events Conditions
12:53 AM 68.0 °F - 42.1 °F 39% 29.80 in 10.0 mi ENE 10.4 mph - N/A   Clear
1:53 AM 68.0 °F - 43.0 °F 40% 29.78 in 10.0 mi NE 8.1 mph - N/A   Clear
2:53 AM 68.0 °F - 44.1 °F 42% 29.75 in 10.0 mi East 10.4 mph - N/A   Clear
3:53 AM 64.9 °F - 45.0 °F 48% 29.76 in 10.0 mi ENE 9.2 mph - N/A   Clear
4:53 AM 64.0 °F - 46.0 °F 52% 29.77 in 10.0 mi ENE 8.1 mph - N/A   Clear
5:53 AM 62.1 °F - 46.9 °F 58% 29.76 in 10.0 mi ENE 6.9 mph - N/A   Clear
6:53 AM 62.1 °F - 46.9 °F 58% 29.75 in 10.0 mi ENE 10.4 mph - N/A   Clear
7:53 AM 66.9 °F - 48.0 °F 51% 29.74 in 10.0 mi East 9.2 mph - N/A   Clear
8:53 AM 71.1 °F - 48.9 °F 45% 29.73 in 10.0 mi East 8.1 mph - N/A   Clear
9:53 AM 75.9 °F - 50.0 °F 40% 29.70 in 10.0 mi ESE 5.8 mph - N/A   Clear
10:53 AM 79.0 °F - 50.0 °F 36% 29.68 in 10.0 mi ESE 3.5 mph - N/A   Clear
11:53 AM 82.9 °F - 52.0 °F 34% 29.68 in 10.0 mi Calm Calm - N/A   Clear
12:53 PM 84.9 °F 83.3 °F 54.0 °F 34% 29.68 in 10.0 mi SW 12.7 mph - N/A   Clear
1:53 PM 84.9 °F - 51.1 °F 31% 29.68 in 10.0 mi WNW 16.1 mph 25.3 mph N/A   Clear
2:53 PM 88.0 °F - 48.0 °F 25% 29.69 in 10.0 mi WNW 17.3 mph 21.9 mph N/A   Clear
3:53 PM 84.9 °F - 46.9 °F 27% 29.70 in 10.0 mi North 16.1 mph - N/A   Clear
4:53 PM 84.9 °F - 46.9 °F 27% 29.71 in 10.0 mi NNE 5.8 mph - N/A   Partly Cloudy
5:53 PM 84.0 °F - 48.0 °F 28% 29.71 in 10.0 mi Calm Calm - N/A   Clear
6:53 PM 79.0 °F - 53.1 °F 40% 29.72 in 10.0 mi Calm Calm - N/A   Clear
7:53 PM 73.0 °F - 52.0 °F 48% 29.71 in 10.0 mi Calm Calm - N/A   Clear
8:53 PM 70.0 °F - 46.9 °F 44% 29.72 in 10.0 mi NE 3.5 mph - N/A   Clear
9:53 PM 66.9 °F - 48.9 °F 52% 29.79 in 10.0 mi West 15.0 mph 23.0 mph N/A   Clear
10:53 PM 69.1 °F - 55.0 °F 61% 29.73 in 9.0 mi NW 6.9 mph - 0.01 in Rain Light Rain
11:53 PM 66.0 °F - 54.0 °F 65% 29.75 in 10.0 mi NNW 6.9 mph - 0.00 in   Clear